sat.trackr.live / text

‹ back to catalog

QIANFAN-5

NORAD 60383 · 2024-140E

PAYLOAD ACTIVE UNKNOWN

§ Identity

Operator
Country
PRC
Launch date
2024-08-06
Launch site
TAISC
Launch vehicle
Mass (kg)
RCS (m²)

External: N2YO · Heavens-Above · Gunter

§ Orbital elements

Epoch: 2026-05-25T03:19:11.254080Z

Period
106.59 min
Inclination
88.9692°
Eccentricity
0.0017264
Mean motion
13.51008485 rev/d
Perigee alt
1,055.7 km
Apogee alt
1,081.4 km
Semi-major
7,446.7 km
B*
1.1493e-4
RAAN
282.2838°
Arg perigee
99.8773°
Mean anomaly
260.4328°
Rev number
8,936

§ Raw data

QIANFAN-51 60383U 24140E   26145.13832470  .00000087  00000+0  11493-3 0  99922 60383  88.9692 282.2838 0017264  99.8773 260.4328 13.51008485 89366

JSON: /api/v1/satellites/60383 · /tle

For live sub-satellite position, see the globe view (requires WebGL).

§ Visibility from observer

Set your observer location to see the next 7 days of passes ≥ 10°. The values pass through the URL so the page stays shareable.

No JS? Fill the form by hand. The geolocation button needs JavaScript.